WA6MLF Weather Reports


time (UTC)temp
C
wind
direction
speed
KPH
gust
KPH
rain 1hr
cm
rain 24hr
cm
rain mn
cm
humidity
%
barometer
mb
20260503030055 21 346 0.0 0.0 0.00 0.00 0.00 34 1008.5
20260503024555 21 346 0.0 0.0 0.00 0.00 0.00 34 1008.3
20260503023056 22 346 0.0 1.6 0.00 0.00 0.00 33 1008.4
20260503021554 22 346 1.6 4.8 0.00 0.00 0.00 32 1008.3
20260503020056 23 346 1.6 6.4 0.00 0.00 0.00 30 1008.3
20260503014605 23 346 3.2 6.4 0.00 0.00 0.00 29 1008.3
20260503013051 23 349 1.6 9.7 0.00 0.00 0.00 27 1008.5
20260503011551 24 5 3.2 8.0 0.00 0.00 0.00 26 1008.7
20260503010051 24 360 3.2 6.4 0.00 0.00 0.00 26 1008.6
20260503004549 25 355 4.8 12.9 0.00 0.00 0.00 24 1008.6
20260503003055 25 355 4.8 14.5 0.00 0.00 0.00 23 1008.7
20260503001606 26 355 1.6 9.7 0.00 0.00 0.00 18 1008.7
20260503000049 26 5 1.6 6.4 0.00 0.00 0.00 15 1008.8
20260502234549 26 348 3.2 8.0 0.00 0.00 0.00 18 1008.8
20260502233044 26 360 3.2 9.7 0.00 0.00 0.00 16 1009.0
20260502231543 27 347 3.2 11.3 0.00 0.00 0.00 15 1009.0
20260502230042 28 254 3.2 9.7 0.00 0.00 0.00 20 1009.2
20260502224539 27 88 0.0 9.7 0.00 0.00 0.00 17 1009.4
20260502223038 27 66 1.6 6.4 0.00 0.00 0.00 17 1009.6
20260502221542 27 101 1.6 6.4 0.00 0.00 0.00 16 1009.8
20260502220036 27 128 3.2 6.4 0.00 0.00 0.00 18 1009.9
20260502214530 26 74 4.8 12.9 0.00 0.00 0.00 19 1010.1
20260502213028 26 355 3.2 14.5 0.00 0.00 0.00 24 1010.4
20260502211525 26 5 3.2 8.0 0.00 0.00 0.00 25 1010.6
20260502210022 25 281 1.6 16.1 0.00 0.00 0.00 26 1010.8
20260502204521 26 45 3.2 8.0 0.00 0.00 0.00 29 1011.0
20260502203024 26 355 3.2 12.9 0.00 0.00 0.00 25 1011.2
20260502201521 25 44 3.2 6.4 0.00 0.00 0.00 24 1011.5
20260502200015 25 360 3.2 9.7 0.00 0.00 0.00 27 1011.6
20260502194512 25 57 1.6 12.9 0.00 0.00 0.00 27 1011.9
20260502193009 25 126 1.6 11.3 0.00 0.00 0.00 29 1012.2
20260502191506 23 80 0.0 9.7 0.00 0.00 0.00 31 1012.4
20260502190004 23 73 0.0 11.3 0.00 0.00 0.00 31 1012.6
20260502184502 23 57 1.6 11.3 0.00 0.00 0.00 31 1012.8
20260502183105 23 204 1.6 9.7 0.00 0.00 0.00 33 1013.0
20260502181608 22 83 3.2 9.7 0.00 0.00 0.00 31 1013.2
20260502163040 17 145 1.6 8.0 0.00 0.00 0.00 41 1014.3
20260502161535 16 149 1.6 6.4 0.00 0.00 0.00 46 1014.4
20260502151515 12 30 1.6 4.8 0.00 0.00 0.00 53 1014.2
20260502123001 7 31 0.0 0.0 0.00 0.00 0.00 77 1013.5
20260502121600 7 32 0.0 0.0 0.00 0.00 0.00 75 1013.4
20260502120157 7 32 0.0 0.0 0.00 0.00 0.00 72 1013.2
20260502114559 8 32 0.0 3.2 0.00 0.00 0.00 69 1013.3
20260502113056 8 32 0.0 0.0 0.00 0.00 0.00 65 1013.3
20260502111556 9 32 0.0 3.2 0.00 0.00 0.00 62 1013.3
20260502110100 10 31 0.0 3.2 0.00 0.00 0.00 58 1013.2
20260502104556 10 31 1.6 4.8 0.00 0.00 0.00 58 1013.3
20260502103100 10 31 0.0 3.2 0.00 0.00 0.00 57 1013.4
20260502101620 10 31 0.0 1.6 0.00 0.00 0.00 56 1013.3
20260502100116 11 31 0.0 1.6 0.00 0.00 0.00 55 1013.2
20260502071535 9 24 0.0 1.6 0.00 0.00 0.00 64 1013.7
20260502070038 10 24 0.0 1.6 0.00 0.00 0.00 61 1013.6
20260502064526 11 24 0.0 0.0 0.00 0.00 0.00 59 1013.7
20260502063025 11 24 0.0 0.0 0.00 0.00 0.00 55 1013.6
20260502061517 12 24 0.0 0.0 0.00 0.00 0.00 53 1013.6
20260502060013 13 24 0.0 1.6 0.00 0.00 0.00 48 1013.5
20260502054512 14 24 0.0 3.2 0.00 0.00 0.00 47 1013.5
20260502053011 15 24 3.2 4.8 0.00 0.00 0.00 44 1013.5
20260502051522 15 24 1.6 4.8 0.00 0.00 0.00 43 1013.5
20260502050010 16 24 0.0 3.2 0.00 0.00 0.00 43 1013.5
20260502044510 16 24 1.6 6.4 0.00 0.00 0.00 41 1013.5
20260502043014 16 9 0.0 3.2 0.00 0.00 0.00 41 1013.4
20260502041509 17 9 0.0 3.2 0.00 0.00 0.00 40 1013.5
20260502040008 17 9 0.0 4.8 0.00 0.00 0.00 37 1013.4
20260502034508 18 9 0.0 3.2 0.00 0.00 0.00 36 1013.4
20260502033006 18 9 0.0 1.6 0.00 0.00 0.00 35 1013.3
20260502031506 19 9 0.0 3.2 0.00 0.00 0.00 34 1013.1